Location: Newark
(34.5992°S, 58.3747°W)
Time: 11:14:47
(UTC+00:00)

ISS - Visible Passes

Search period start: 06 December 2019 00:00
Search period end: 16 December 2019 00:00
Orbit: 411 x 421 km, 51.6° (Epoch: 06 December)

Date Brightness Start Highest point End Pass type
(mag) Time Alt. Az. Time Alt. Az. Time Alt. Az.
06 Dec -1.1 05:40:56 16° SSW 05:40:56 16° SSW 05:42:49 10° SSE visible
07 Dec -0.5 04:53:57 15° SSE 04:53:57 15° SSE 04:54:46 10° SSE visible
09 Dec -0.4 04:52:36 12° SSW 04:52:36 12° SSW 04:53:24 10° S visible
10 Dec -0.2 04:05:22 11° SSE 04:05:22 11° SSE 04:05:36 10° SSE visible
13 Dec -0.3 03:15:14 12° SSW 03:15:14 12° SSW 03:16:07 10° S visible
14 Dec -0.9 02:25:57 19° SSW 02:25:57 19° SSW 02:28:12 10° SSE visible
14 Dec -0.5 07:17:52 10° S 07:20:03 16° SSE 07:22:12 10° ESE visible
14 Dec -2.6 23:57:33 10° N 00:00:19 23° NE 00:03:06 10° ESE visible
15 Dec -1.7 01:33:54 10° W 01:36:57 29° SW 01:40:01 10° SSE visible
15 Dec -0.1 06:30:13 10° S 06:31:13 11° SSE 06:32:12 10° SE visible
15 Dec -3.3 08:05:06 10° SW 08:08:31 67° SE 08:11:52 10° NE visible
